FLOCK 4S-21 (47456 NORAD) Tracking and Keplerian Element Data

This shows tracking and keplerian element data for the satellite.

Feedback or suggestion? Click here.




ElementValue
Catalog47456
NameFLOCK 4S-21
Epoch Orbit1168
Epoch Day99.88078402
Epoch Year2021
RAAN162.3462
Inclination97.5005
Eccentricity0.0010635
Argument of Perigee342.5803
Mean Anonmoly17.5061
Mean Motion15.12760634
Decay Rate1.663E-05
L11 47456U 21006AV 21099.88078402 .00001663 00000-0 98435-4 0 9992
L22 47456 97.5005 162.3462 0010635 342.5803 17.5061 15.12760634 11689

Live tracking and technical data element details for FLOCK 4S-21 (NORAD 47456). FLOCK 4S-21 can be tracked NOW for your location showing map with azimuth and elevation plus other details from your city location.

Track the satellite on the map from your city or location and see movement details for azimuth, elevation, latitude, longitude, range, height, and movement on the map or in text.







IsCatalogInMostPopularTable: catalog: 47456, numindb: 16
Update: records affected: 1



GetName: 47456 FLOCK 4S-21

Hit Count: updated at: Sat, 10 Apr 2021 19:47:56 GMT